FW3224 Weather Reports


time (UTC)temp
C
wind
direction
speed
KPH
gust
KPH
rain 1hr
cm
rain 24hr
cm
rain mn
cm
humidity
%
barometer
mb
20260505040005 22 252 4.8 8.0 0.00 0.38 0.28 47 1016.3
20260505035505 21 202 3.2 8.0 0.00 0.38 0.28 48 1016.2
20260505035003 21 166 3.2 14.5 0.00 0.38 0.28 48 1016.2
20260505034502 22 293 6.4 14.5 0.00 0.38 0.28 47 1016.1
20260505034101 21 196 1.6 4.8 0.00 0.38 0.28 48 1016.2
20260505033601 21 200 1.6 12.9 0.00 0.38 0.28 49 1016.2
20260505033059 21 250 3.2 12.9 0.00 0.38 0.28 50 1016.1
20260505032558 21 219 3.2 11.3 0.00 0.38 0.28 52 1016.3
20260505032056 21 167 1.6 12.9 0.00 0.38 0.28 52 1016.2
20260505031555 21 205 1.6 12.9 0.00 0.38 0.28 53 1016.3
20260505031054 21 148 1.6 11.3 0.00 0.38 0.28 54 1016.3
20260505030554 21 227 4.8 11.3 0.00 0.38 0.28 53 1016.5
20260505030100 21 223 3.2 11.3 0.00 0.38 0.28 56 1016.5
20260505025550 20 269 4.8 11.3 0.00 0.38 0.28 56 1016.7
20260505025048 20 267 1.6 8.0 0.00 0.38 0.28 57 1016.7
20260505024601 20 247 3.2 11.3 0.00 0.38 0.28 57 1016.9
20260505024047 20 261 6.4 11.3 0.00 0.38 0.28 56 1017.0
20260505023548 20 283 1.6 11.3 0.00 0.38 0.28 59 1017.0
20260505023048 20 236 1.6 6.4 0.00 0.38 0.28 57 1017.0
20260505022547 20 240 4.8 6.4 0.00 0.38 0.28 56 1017.1
20260505022047 20 259 1.6 8.0 0.00 0.38 0.28 56 1017.2
20260505021546 20 215 3.2 11.3 0.00 0.38 0.28 57 1017.2
20260505021045 20 268 4.8 11.3 0.00 0.38 0.28 56 1017.2
20260505020544 20 187 3.2 6.4 0.00 0.38 0.28 56 1017.4
20260505020059 19 239 1.6 9.7 0.00 0.38 0.28 58 1017.4
20260505015544 20 250 3.2 9.7 0.00 0.38 0.28 57 1017.5
20260505015044 20 261 1.6 8.0 0.00 0.38 0.28 58 1017.4
20260505014543 19 267 3.2 12.9 0.00 0.38 0.28 57 1017.6
20260505014042 19 214 3.2 12.9 0.00 0.38 0.28 57 1017.6
20260505013544 19 267 3.2 11.3 0.00 0.38 0.28 59 1017.6
20260505013042 19 244 4.8 11.3 0.00 0.38 0.28 58 1017.8
20260505012542 18 271 4.8 14.5 0.00 0.38 0.28 59 1017.7
20260505012042 18 299 4.8 14.5 0.00 0.38 0.28 60 1017.8
20260505011539 18 238 4.8 9.7 0.00 0.38 0.28 59 1017.9
20260505011040 18 246 4.8 11.3 0.00 0.38 0.28 59 1018.0
20260505010536 18 278 3.2 12.9 0.00 0.38 0.28 58 1017.9
20260505010038 18 264 4.8 12.9 0.00 0.38 0.28 58 1018.0
20260505005536 18 274 4.8 14.5 0.00 0.38 0.28 59 1018.2
20260505005035 18 238 6.4 14.5 0.00 0.38 0.28 58 1018.2
20260505004555 18 252 3.2 11.3 0.00 0.38 0.28 60 1018.1
20260505004036 18 243 6.4 12.9 0.00 0.38 0.28 59 1018.3
20260505003535 18 248 4.8 11.3 0.00 0.38 0.28 60 1018.3
20260505003033 18 277 3.2 8.0 0.00 0.38 0.28 61 1018.3
20260505002533 18 206 3.2 8.0 0.00 0.38 0.28 61 1018.4
20260505002032 18 226 3.2 8.0 0.00 0.38 0.28 61 1018.4
20260505001536 18 249 4.8 12.9 0.00 0.38 0.28 62 1018.5
20260505001032 18 194 4.8 12.9 0.00 0.38 0.28 62 1018.5
20260505000530 18 238 1.6 8.0 0.00 0.38 0.28 64 1018.4
20260505000035 17 209 1.6 8.0 0.00 0.38 0.28 63 1018.3
20260504235529 17 236 3.2 8.0 0.00 0.38 0.28 64 1018.3
20260504235028 17 242 1.6 6.4 0.00 0.38 0.28 66 1018.4
20260504234528 17 234 0.0 6.4 0.00 0.38 0.28 67 1018.4
20260504234027 17 209 1.6 6.4 0.00 0.38 0.28 67 1018.5
20260504233528 17 262 1.6 4.8 0.00 0.38 0.28 68 1018.5
20260504233028 17 261 1.6 6.4 0.00 0.38 0.28 69 1018.5
20260504232527 17 275 1.6 6.4 0.00 0.38 0.28 68 1018.6
20260504232026 17 214 1.6 8.0 0.00 0.38 0.28 69 1018.6
20260504231527 17 211 1.6 8.0 0.00 0.38 0.28 69 1018.6
20260504231027 17 217 3.2 11.3 0.00 0.38 0.28 69 1018.7
20260504230529 17 176 1.6 8.0 0.00 0.38 0.28 70 1018.7
20260504230024 17 223 3.2 8.0 0.00 0.38 0.28 71 1018.8
20260504225525 16 215 1.6 6.4 0.00 0.38 0.28 72 1018.7
20260504225023 16 213 1.6 8.0 0.00 0.38 0.28 73 1018.8
20260504224532 16 207 0.0 8.0 0.00 0.38 0.28 73 1018.7
20260504224023 16 160 0.0 8.0 0.00 0.38 0.28 73 1018.8
20260504223523 16 198 1.6 12.9 0.00 0.38 0.28 74 1018.8
20260504223022 16 125 4.8 12.9 0.00 0.38 0.28 74 1018.7
20260504222520 16 219 0.0 4.8 0.00 0.38 0.28 78 1018.7
20260504222019 15 151 0.0 8.0 0.00 0.38 0.28 78 1018.6
20260504221519 15 134 1.6 11.3 0.00 0.38 0.28 80 1018.5
20260504221017 15 140 1.6 11.3 0.00 0.38 0.28 81 1018.3
20260504220515 15 149 1.6 6.4 0.00 0.38 0.28 82 1018.3
20260504220015 15 111 0.0 6.4 0.00 0.38 0.28 82 1018.1
20260504215514 15 133 1.6 6.4 0.00 0.38 0.28 82 1018.2
20260504215015 15 116 1.6 4.8 0.00 0.38 0.28 82 1018.1
20260504214513 15 170 0.0 4.8 0.00 0.38 0.28 83 1017.9
20260504214012 15 180 0.0 4.8 0.00 0.38 0.28 82 1017.8
20260504213514 15 150 0.0 3.2 0.00 0.38 0.28 83 1017.8
20260504213026 15 148 0.0 3.2 0.00 0.38 0.28 82 1017.7
20260504212509 15 148 0.0 6.4 0.00 0.38 0.28 82 1017.4
20260504212008 15 131 1.6 6.4 0.00 0.38 0.28 83 1017.4
20260504211507 15 138 1.6 4.8 0.00 0.38 0.28 84 1017.4
20260504211005 15 132 0.0 3.2 0.00 0.38 0.28 84 1017.3
20260504210505 15 131 0.0 1.6 0.00 0.38 0.28 84 1017.2
20260504210002 15 131 0.0 6.4 0.00 0.38 0.28 85 1017.0
20260504205501 15 131 1.6 6.4 0.03 0.38 0.28 86 1016.9
20260504205103 15 222 0.0 4.8 0.03 0.38 0.28 88 1016.8
20260504204559 15 135 0.0 3.2 0.03 0.38 0.28 90 1016.8
20260504204058 15 146 0.0 3.2 0.03 0.38 0.28 91 1016.7
20260504203558 15 146 0.0 3.2 0.03 0.38 0.28 91 1016.7
20260504203055 15 252 0.0 0.0 0.03 0.38 0.28 92 1016.5
20260504202554 15 257 0.0 1.6 0.03 0.38 0.28 92 1016.5
20260504202055 15 260 0.0 3.2 0.03 0.38 0.28 93 1016.3
20260504201554 15 260 0.0 3.2 0.03 0.38 0.28 93 1016.3
20260504201052 15 260 0.0 3.2 0.03 0.38 0.28 93 1016.1
20260504200552 15 260 0.0 6.4 0.03 0.38 0.28 94 1016.2
20260504200051 15 198 0.0 6.4 0.03 0.38 0.28 94 1016.1
20260504195549 15 244 0.0 6.4 0.00 0.36 0.25 94 1016.0
20260504195048 15 251 0.0 6.4 0.00 0.36 0.25 95 1016.2
20260504194553 15 251 0.0 4.8 0.00 0.36 0.25 95 1016.0
20260504194046 16 251 0.0 6.4 0.00 0.36 0.25 95 1016.0
20260504193545 16 248 3.2 6.4 0.00 0.36 0.25 96 1016.0
20260504193047 16 284 1.6 4.8 0.00 0.36 0.25 96 1015.8
20260504192542 16 281 3.2 6.4 0.00 0.36 0.25 96 1015.7
20260504192041 16 285 1.6 6.4 0.00 0.36 0.25 96 1015.5
20260504191606 16 259 1.6 4.8 0.00 0.36 0.25 96 1015.5
20260504191040 16 258 0.0 4.8 0.00 0.36 0.25 96 1015.5
20260504190540 16 257 0.0 3.2 0.00 0.36 0.25 96 1015.4
20260504190040 16 257 0.0 3.2 0.00 0.36 0.25 96 1015.3
20260504185538 16 257 0.0 4.8 0.00 0.36 0.25 96 1015.3
20260504185038 16 257 0.0 4.8 0.00 0.36 0.25 96 1015.4
20260504184549 16 257 0.0 4.8 0.00 0.36 0.25 96 1015.3
20260504184038 16 257 1.6 6.4 0.00 0.36 0.25 96 1015.4
20260504183538 16 259 3.2 6.4 0.00 0.36 0.25 96 1015.4
20260504183038 16 282 3.2 6.4 0.00 0.36 0.25 96 1015.4
20260504182537 16 253 1.6 4.8 0.00 0.36 0.25 96 1015.4
20260504182037 16 245 1.6 4.8 0.00 0.36 0.25 96 1015.3
20260504181538 17 242 0.0 4.8 0.00 0.36 0.25 96 1015.3
20260504181037 17 259 1.6 8.0 0.00 0.36 0.25 96 1015.3
20260504180536 17 247 3.2 8.0 0.00 0.36 0.25 96 1015.2
20260504180037 17 285 1.6 4.8 0.00 0.36 0.25 96 1015.2
20260504175536 17 294 0.0 3.2 0.00 0.36 0.25 96 1015.3
20260504175035 17 291 1.6 6.4 0.00 0.36 0.25 95 1015.3
20260504174535 17 291 3.2 8.0 0.00 0.36 0.25 95 1015.2
20260504174035 17 284 3.2 8.0 0.00 0.36 0.25 95 1015.2
20260504173535 17 318 3.2 4.8 0.00 0.36 0.25 95 1014.9
20260504173034 17 298 1.6 4.8 0.03 0.36 0.25 95 1014.8
20260504172534 17 313 0.0 4.8 0.03 0.36 0.25 95 1014.8
20260504172033 17 273 1.6 4.8 0.03 0.36 0.25 95 1015.0
20260504171538 17 289 1.6 6.4 0.03 0.36 0.25 95 1015.0
20260504171033 17 303 1.6 11.3 0.05 0.36 0.25 95 1015.2
20260504170532 17 274 4.8 11.3 0.05 0.36 0.25 95 1015.3
20260504151021 17 265 4.8 16.1 0.05 0.15 0.05 93 1015.2
20260504150524 17 267 6.4 17.7 0.03 0.13 0.03 94 1015.2
20260504141017 17 311 0.0 3.2 0.03 0.10 0.00 94 1014.5
20260504140511 17 297 0.0 3.2 0.03 0.10 0.00 94 1014.5
20260504130507 17 305 1.6 4.8 0.00 0.08 0.08 94 1014.9
20260504110502 17 278 0.0 3.2 0.08 0.08 0.08 91 1015.7
20260504100602 19 287 3.2 16.1 0.00 0.00 0.00 81 1015.9
20260504100105 20 273 4.8 17.7 0.00 0.00 0.00 79 1016.0
20260504081556 21 253 1.6 11.3 0.00 0.00 0.00 72 1014.8
20260504081057 21 277 3.2 12.9 0.00 0.00 0.00 72 1014.8
20260504080557 21 281 4.8 12.9 0.00 0.00 0.00 70 1014.8
20260504050550 23 270 0.0 0.0 0.00 0.00 0.00 61 1014.1
20260504045549 23 271 0.0 0.0 0.00 0.00 0.00 63 1014.1
20260504045049 23 271 0.0 0.0 0.00 0.00 0.00 62 1013.9
20260504044549 23 271 0.0 0.0 0.00 0.00 0.00 61 1014.1
20260504044048 24 274 0.0 3.2 0.00 0.00 0.00 62 1014.0
20260504043548 24 274 0.0 4.8 0.00 0.00 0.00 61 1014.0
20260504043050 24 274 1.6 6.4 0.00 0.00 0.00 59 1014.2
20260504042548 24 235 1.6 6.4 0.00 0.00 0.00 59 1014.3
20260504042046 24 239 1.6 4.8 0.00 0.00 0.00 58 1014.3
20260504041546 25 205 0.0 1.6 0.00 0.00 0.00 58 1014.3
20260504041045 24 201 0.0 3.2 0.00 0.00 0.00 61 1014.4
20260504040547 24 285 0.0 3.2 0.00 0.00 0.00 61 1014.4